Time,TemperatureF,DewpointF,PressureIn,WindDirection,WindDirectionDegrees,WindSpeedMPH,WindSpeedGustMPH,Humidity,HourlyPrecipIn,Conditions,Clouds,dailyrainin,SoftwareType,DateUTC
2013-03-11 00:00:00,43.1,30.0,30.08,North,5,1.0,2.0,60,0.00,,,0.00,weatherlink.com 1.10,2013-03-11 05:00:00,
2013-03-11 00:15:00,42.8,29.0,30.08,North,5,0.0,2.0,59,0.00,,,0.00,weatherlink.com 1.10,2013-03-11 05:15:00,
2013-03-11 00:30:00,42.9,29.0,30.08,North,5,0.0,2.0,58,0.00,,,0.00,weatherlink.com 1.10,2013-03-11 05:30:00,
2013-03-11 00:45:00,42.5,29.0,30.09,North,5,0.0,2.0,59,0.00,,,0.00,weatherlink.com 1.10,2013-03-11 05:45:00,
2013-03-11 01:00:00,42.0,28.0,30.09,North,5,0.0,1.0,59,0.00,,,0.00,weatherlink.com 1.10,2013-03-11 06:00:00,
2013-03-11 01:16:00,41.6,27.0,30.09,North,5,0.0,1.0,57,0.00,,,0.00,weatherlink.com 1.10,2013-03-11 06:16:00,
2013-03-11 01:31:00,41.5,28.0,30.09,North,5,0.0,0.0,58,0.00,,,0.00,weatherlink.com 1.10,2013-03-11 06:31:00,
2013-03-11 01:46:00,41.3,26.0,30.09,North,5,0.0,1.0,56,0.00,,,0.00,weatherlink.com 1.10,2013-03-11 06:46:00,
2013-03-11 02:01:00,40.8,26.0,30.09,North,5,0.0,0.0,56,0.00,,,0.00,weatherlink.com 1.10,2013-03-11 07:01:00,
2013-03-11 02:16:00,40.5,26.0,30.09,North,5,0.0,1.0,57,0.00,,,0.00,weatherlink.com 1.10,2013-03-11 07:16:00,
2013-03-11 02:34:00,39.9,26.0,30.09,North,5,0.0,1.0,58,0.00,,,0.00,weatherlink.com 1.10,2013-03-11 07:34:00,
2013-03-11 02:46:00,39.4,26.0,30.08,North,5,0.0,1.0,59,0.00,,,0.00,weatherlink.com 1.10,2013-03-11 07:46:00,
2013-03-11 03:31:00,37.5,26.0,30.08,North,5,0.0,2.0,64,0.00,,,0.00,weatherlink.com 1.10,2013-03-11 08:31:00,
2013-03-11 03:46:00,37.1,27.0,30.07,North,5,0.0,1.0,66,0.00,,,0.00,weatherlink.com 1.10,2013-03-11 08:46:00,
2013-03-11 04:01:00,36.7,27.0,30.07,North,5,0.0,2.0,67,0.00,,,0.00,weatherlink.com 1.10,2013-03-11 09:01:00,
2013-03-11 04:16:00,36.4,27.0,30.07,North,5,1.0,1.0,68,0.00,,,0.00,weatherlink.com 1.10,2013-03-11 09:16:00,
2013-03-11 04:31:00,36.1,27.0,30.07,North,5,0.0,1.0,69,0.00,,,0.00,weatherlink.com 1.10,2013-03-11 09:31:00,
2013-03-11 05:01:00,35.4,25.0,30.07,North,5,0.0,1.0,67,0.00,,,0.00,weatherlink.com 1.10,2013-03-11 10:01:00,
2013-03-11 05:16:00,34.7,25.0,30.08,North,5,0.0,0.0,69,0.00,,,0.00,weatherlink.com 1.10,2013-03-11 10:16:00,
2013-03-11 05:46:00,33.6,25.0,30.09,North,5,0.0,0.0,71,0.00,,,0.00,weatherlink.com 1.10,2013-03-11 10:46:00,
2013-03-11 06:16:00,32.3,26.0,30.09,North,5,0.0,0.0,76,0.00,,,0.00,weatherlink.com 1.10,2013-03-11 11:16:00,
2013-03-11 06:31:00,31.9,26.0,30.10,North,5,0.0,0.0,79,0.00,,,0.00,weatherlink.com 1.10,2013-03-11 11:31:00,
2013-03-11 07:01:00,32.6,24.0,30.11,North,5,0.0,2.0,72,0.00,,,0.00,weatherlink.com 1.10,2013-03-11 12:01:00,
2013-03-11 07:16:00,32.8,25.0,30.11,North,5,0.0,0.0,72,0.00,,,0.00,weatherlink.com 1.10,2013-03-11 12:16:00,
2013-03-11 07:31:00,32.4,25.0,30.11,North,5,0.0,1.0,73,0.00,,,0.00,weatherlink.com 1.10,2013-03-11 12:31:00,
2013-03-11 07:46:00,32.3,24.0,30.12,North,5,0.0,1.0,71,0.00,,,0.00,weatherlink.com 1.10,2013-03-11 12:46:00,
2013-03-11 08:02:00,32.6,24.0,30.12,North,5,0.0,2.0,71,0.00,,,0.00,weatherlink.com 1.10,2013-03-11 13:02:00,
2013-03-11 08:17:00,33.4,25.0,30.13,North,5,0.0,2.0,70,0.00,,,0.00,weatherlink.com 1.10,2013-03-11 13:17:00,
2013-03-11 08:32:00,34.9,25.0,30.14,North,5,0.0,3.0,68,0.00,,,0.00,weatherlink.com 1.10,2013-03-11 13:32:00,
2013-03-11 08:47:00,36.6,26.0,30.14,North,5,1.0,3.0,65,0.00,,,0.00,weatherlink.com 1.10,2013-03-11 13:47:00,
2013-03-11 09:02:00,38.5,26.0,30.15,North,5,0.0,4.0,60,0.00,,,0.00,weatherlink.com 1.10,2013-03-11 14:02:00,
2013-03-11 09:17:00,40.2,26.0,30.15,North,360,2.0,4.0,58,0.00,,,0.00,weatherlink.com 1.10,2013-03-11 14:17:00,
2013-03-11 09:32:00,41.8,27.0,30.15,North,351,1.0,6.0,55,0.00,,,0.00,weatherlink.com 1.10,2013-03-11 14:32:00,
2013-03-11 09:47:00,43.1,25.0,30.16,North,350,3.0,7.0,50,0.00,,,0.00,weatherlink.com 1.10,2013-03-11 14:47:00,
2013-03-11 10:02:00,44.0,27.0,30.16,North,355,1.0,6.0,51,0.00,,,0.00,weatherlink.com 1.10,2013-03-11 15:02:00,
2013-03-11 10:17:00,45.2,28.0,30.16,NNE,24,4.0,7.0,51,0.00,,,0.00,weatherlink.com 1.10,2013-03-11 15:17:00,
2013-03-11 10:32:00,47.0,25.0,30.15,NNE,14,4.0,6.0,42,0.00,,,0.00,weatherlink.com 1.10,2013-03-11 15:32:00,
2013-03-11 10:47:00,48.3,25.0,30.15,NNW,341,7.0,9.0,40,0.00,,,0.00,weatherlink.com 1.10,2013-03-11 15:47:00,
2013-03-11 11:02:00,49.3,26.0,30.15,NNE,12,4.0,7.0,40,0.00,,,0.00,weatherlink.com 1.10,2013-03-11 16:02:00,
2013-03-11 11:17:00,50.7,26.0,30.15,NW,313,2.0,10.0,38,0.00,,,0.00,weatherlink.com 1.10,2013-03-11 16:17:00,
2013-03-11 11:32:00,51.8,23.0,30.15,North,5,4.0,8.0,33,0.00,,,0.00,weatherlink.com 1.10,2013-03-11 16:32:00,
2013-03-11 11:47:00,52.6,25.0,30.14,West,263,5.0,8.0,34,0.00,,,0.00,weatherlink.com 1.10,2013-03-11 16:47:00,
2013-03-11 12:02:00,53.1,27.0,30.13,North,9,4.0,8.0,36,0.00,,,0.00,weatherlink.com 1.10,2013-03-11 17:02:00,
2013-03-11 12:17:00,53.6,24.0,30.12,NNE,27,3.0,12.0,32,0.00,,,0.00,weatherlink.com 1.10,2013-03-11 17:17:00,
2013-03-11 12:32:00,55.2,25.0,30.12,NW,326,1.0,7.0,31,0.00,,,0.00,weatherlink.com 1.10,2013-03-11 17:32:00,
2013-03-11 12:47:00,55.9,25.0,30.11,NW,309,2.0,6.0,31,0.00,,,0.00,weatherlink.com 1.10,2013-03-11 17:47:00,
2013-03-11 13:02:00,57.6,25.0,30.11,North,360,4.0,8.0,29,0.00,,,0.00,weatherlink.com 1.10,2013-03-11 18:02:00,
2013-03-11 13:18:00,58.3,25.0,30.10,North,350,7.0,7.0,28,0.00,,,0.00,weatherlink.com 1.10,2013-03-11 18:18:00,
2013-03-11 13:33:00,59.1,28.0,30.09,NNE,25,1.0,6.0,30,0.00,,,0.00,weatherlink.com 1.10,2013-03-11 18:33:00,
2013-03-11 13:48:00,61.6,29.0,30.08,NNE,26,4.0,7.0,29,0.00,,,0.00,weatherlink.com 1.10,2013-03-11 18:48:00,
2013-03-11 14:03:00,63.0,27.0,30.07,North,360,2.0,12.0,25,0.00,,,0.00,weatherlink.com 1.10,2013-03-11 19:03:00,
2013-03-11 14:18:00,62.4,23.0,30.06,North,360,5.0,13.0,22,0.00,,,0.00,weatherlink.com 1.10,2013-03-11 19:18:00,
2013-03-11 14:33:00,63.8,26.0,30.05,NE,42,4.0,11.0,24,0.00,,,0.00,weatherlink.com 1.10,2013-03-11 19:33:00,
2013-03-11 14:48:00,63.9,27.0,30.04,WNW,288,2.0,11.0,25,0.00,,,0.00,weatherlink.com 1.10,2013-03-11 19:48:00,
2013-03-11 15:03:00,65.2,26.0,30.03,NW,306,0.0,10.0,23,0.00,,,0.00,weatherlink.com 1.10,2013-03-11 20:03:00,
2013-03-11 15:18:00,66.1,27.0,30.02,NE,40,4.0,8.0,23,0.00,,,0.00,weatherlink.com 1.10,2013-03-11 20:18:00,
2013-03-11 15:33:00,66.2,27.0,30.01,North,5,0.0,13.0,23,0.00,,,0.00,weatherlink.com 1.10,2013-03-11 20:33:00,
2013-03-11 15:48:00,67.0,28.0,30.00,West,264,5.0,8.0,23,0.00,,,0.00,weatherlink.com 1.10,2013-03-11 20:48:00,
2013-03-11 16:03:00,67.7,28.0,30.00,North,355,6.0,7.0,23,0.00,,,0.00,weatherlink.com 1.10,2013-03-11 21:03:00,
2013-03-11 16:18:00,67.9,28.0,29.99,WNW,294,4.0,7.0,22,0.00,,,0.00,weatherlink.com 1.10,2013-03-11 21:18:00,
2013-03-11 16:33:00,69.2,29.0,29.98,WSW,254,7.0,10.0,22,0.00,,,0.00,weatherlink.com 1.10,2013-03-11 21:33:00,
2013-03-11 16:48:00,69.0,30.0,29.98,WNW,298,2.0,8.0,23,0.00,,,0.00,weatherlink.com 1.10,2013-03-11 21:48:00,
2013-03-11 17:03:00,69.3,29.0,29.97,NW,318,1.0,11.0,22,0.00,,,0.00,weatherlink.com 1.10,2013-03-11 22:03:00,
2013-03-11 17:18:00,69.0,28.0,29.97,NNE,15,1.0,10.0,22,0.00,,,0.00,weatherlink.com 1.10,2013-03-11 22:18:00,
2013-03-11 17:33:00,70.0,30.0,29.96,NNW,346,1.0,7.0,23,0.00,,,0.00,weatherlink.com 1.10,2013-03-11 22:33:00,
2013-03-11 17:48:00,70.1,27.0,29.96,North,11,4.0,7.0,20,0.00,,,0.00,weatherlink.com 1.10,2013-03-11 22:48:00,
2013-03-11 18:03:00,69.2,28.0,29.95,NNE,28,1.0,7.0,21,0.00,,,0.00,weatherlink.com 1.10,2013-03-11 23:03:00,
2013-03-11 18:18:00,69.8,27.0,29.96,WNW,303,0.0,6.0,20,0.00,,,0.00,weatherlink.com 1.10,2013-03-11 23:18:00,
2013-03-11 18:33:00,69.6,27.0,29.95,North,355,0.0,5.0,20,0.00,,,0.00,weatherlink.com 1.10,2013-03-11 23:33:00,
2013-03-11 18:48:00,69.9,26.0,29.95,North,355,0.0,2.0,19,0.00,,,0.00,weatherlink.com 1.10,2013-03-11 23:48:00,
2013-03-11 19:03:00,68.9,27.0,29.96,North,355,0.0,2.0,21,0.00,,,0.00,weatherlink.com 1.10,2013-03-12 00:03:00,
2013-03-11 19:18:00,68.6,28.0,29.96,North,355,0.0,0.0,22,0.00,,,0.00,weatherlink.com 1.10,2013-03-12 00:18:00,
2013-03-11 19:33:00,67.2,29.0,29.96,North,355,0.0,0.0,24,0.00,,,0.00,weatherlink.com 1.10,2013-03-12 00:33:00,
2013-03-11 19:48:00,64.8,29.0,29.96,North,355,0.0,0.0,26,0.00,,,0.00,weatherlink.com 1.10,2013-03-12 00:48:00,
2013-03-11 20:04:00,62.6,28.0,29.97,North,355,0.0,0.0,27,0.00,,,0.00,weatherlink.com 1.10,2013-03-12 01:04:00,
2013-03-11 20:19:00,60.6,29.0,29.97,North,355,0.0,0.0,30,0.00,,,0.00,weatherlink.com 1.10,2013-03-12 01:19:00,
2013-03-11 20:34:00,58.8,29.0,29.97,North,355,0.0,0.0,32,0.00,,,0.00,weatherlink.com 1.10,2013-03-12 01:34:00,
2013-03-11 20:49:00,57.6,29.0,29.97,North,355,0.0,0.0,33,0.00,,,0.00,weatherlink.com 1.10,2013-03-12 01:49:00,
2013-03-11 21:04:00,56.7,28.0,29.98,North,355,0.0,0.0,34,0.00,,,0.00,weatherlink.com 1.10,2013-03-12 02:04:00,
2013-03-11 21:19:00,55.9,29.0,29.98,North,355,0.0,0.0,36,0.00,,,0.00,weatherlink.com 1.10,2013-03-12 02:19:00,
2013-03-11 21:34:00,54.6,30.0,29.99,North,355,0.0,1.0,39,0.00,,,0.00,weatherlink.com 1.10,2013-03-12 02:34:00,
2013-03-11 21:49:00,53.9,30.0,29.99,NE,34,0.0,1.0,40,0.00,,,0.00,weatherlink.com 1.10,2013-03-12 02:49:00,
2013-03-11 22:04:00,53.1,30.0,30.00,NE,34,0.0,0.0,42,0.00,,,0.00,weatherlink.com 1.10,2013-03-12 03:04:00,
2013-03-11 22:19:00,52.3,30.0,30.00,NE,34,0.0,1.0,43,0.00,,,0.00,weatherlink.com 1.10,2013-03-12 03:19:00,
2013-03-11 22:34:00,51.4,31.0,30.01,NE,34,0.0,0.0,45,0.00,,,0.00,weatherlink.com 1.10,2013-03-12 03:34:00,
2013-03-11 22:49:00,50.9,31.0,30.01,NE,34,0.0,1.0,46,0.00,,,0.00,weatherlink.com 1.10,2013-03-12 03:49:00,
2013-03-11 23:04:00,50.5,31.0,30.01,NE,34,0.0,1.0,47,0.00,,,0.00,weatherlink.com 1.10,2013-03-12 04:04:00,
2013-03-11 23:19:00,50.1,30.0,30.02,NE,34,0.0,0.0,47,0.00,,,0.00,weatherlink.com 1.10,2013-03-12 04:19:00,
2013-03-11 23:34:00,49.8,30.0,30.02,NE,34,0.0,1.0,47,0.00,,,0.00,weatherlink.com 1.10,2013-03-12 04:34:00,
2013-03-11 23:49:00,50.5,30.0,30.02,NE,34,2.0,3.0,46,0.00,,,0.00,weatherlink.com 1.10,2013-03-12 04:49:00,